Theta_e
291 291 291 291 291 291 291 290 290 290 290 291 290 290 289 289 289 288 288 288 287 287 286 286 285 284 286 287 288 287 288 288 289 289 289 290 290 290
290 290 290 290 289 290 290 290 290 290 290 290 290 289 289 289 288 288 288 287 287 287 286 286 285 285 284 285 286 286 286 285 286 287 288 288 289 288
289 289 289 289 289 289 290 289 289 289 288 288 288 288 288 288 288 287 287 287 287 287 286 286 285 284 284 283 284 285 284 285 285 285 287 286 286 285
288 288 289 288 289 290 289 289 288 288 288 288 288 288 288 288 287 287 287 287 287 287 286 285 285 285 284 283 283 283 283 283 283 284 284 284 284 283
288 288 288 287 288 288 287 287 288 287 287 287 287 287 287 287 287 286 286 286 286 286 286 286 285 285 285 285 285 284 283 282 282 284 283 283 283 283
287 287 287 287 285 285 285 286 286 285 286 286 286 287 287 287 286 286 285 285 285 285 285 286 285 286 286 286 286 285 285 284 283 283 282 282 282 283
287 287 286 285 284 284 283 284 284 284 285 285 285 286 286 286 285 285 284 284 284 284 285 285 285 285 285 286 286 286 285 284 282 282 282 282 282 282
287 287 286 285 285 285 284 283 283 284 284 284 284 284 285 284 284 283 283 283 283 284 284 284 285 285 285 286 286 285 285 284 283 282 282 282 282 282
287 286 286 286 285 285 283 282 284 284 284 284 283 284 283 283 282 282 282 282 282 283 283 284 284 284 285 285 285 284 284 283 283 283 282 282 282 282
286 286 286 285 284 284 282 282 284 284 284 284 283 282 282 281 281 281 281 282 283 283 283 283 284 284 284 284 284 284 284 284 284 283 282 282 282 282
286 285 285 284 283 282 281 281 282 283 284 282 281 282 282 282 282 281 282 282 282 282 282 283 283 283 283 283 284 285 285 285 285 285 284 284 282 282
285 285 284 283 282 281 280 280 281 282 281 280 282 283 283 283 282 282 282 282 281 282 282 281 281 282 282 283 284 284 285 285 286 286 286 285 285 285
283 284 284 283 282 280 280 280 280 279 280 281 282 282 283 283 282 281 281 281 281 281 281 281 281 281 282 282 283 284 284 286 286 286 286 286 286 286
282 283 282 281 280 280 280 279 279 280 280 281 281 282 281 281 280 280 280 281 281 281 281 281 281 281 281 282 282 283 284 285 286 286 286 287 287 287
281 281 280 280 280 280 279 279 279 280 280 280 280 280 279 279 279 279 280 280 280 280 280 280 281 281 281 281 282 282 283 284 285 287 287 287 286 286
281 280 280 280 280 279 279 279 279 279 278 279 279 279 279 279 279 279 279 279 280 280 281 281 280 280 281 281 281 282 282 284 285 285 286 286 286 286
279 279 280 280 280 279 279 279 279 279 278 278 278 279 279 278 278 278 279 279 280 280 280 281 281 281 281 281 281 282 283 284 285 285 285 285 286 286
279 280 280 280 280 279 279 279 278 278 278 277 278 278 278 278 278 278 278 279 280 280 280 280 280 281 281 282 282 284 284 284 284 284 284 284 285 286
279 280 280 279 279 279 279 278 278 277 276 277 277 277 277 277 277 277 278 278 279 279 279 280 281 281 281 282 281 281 281 282 282 283 283 285 285 286
279 279 279 279 278 278 278 277 276 276 276 276 276 276 276 276 276 277 277 277 278 278 279 280 280 281 280 280 280 281 281 282 283 283 284 285 285 286
278 278 277 277 277 277 277 276 276 275 275 275 275 276 275 276 276 276 276 277 277 278 279 279 280 280 280 281 281 281 282 282 284 284 285 286 286 287
277 277 277 276 277 276 276 276 275 275 274 275 275 275 274 274 275 275 276 276 277 278 278 279 280 280 281 281 281 281 282 283 285 286 286 286 286 287
277 276 276 276 276 275 275 275 274 274 273 274 274 273 273 273 274 275 275 276 277 277 278 279 279 280 281 281 281 282 282 284 285 285 286 286 287 287
Wind_Speed
7 8 8 8 8 8 9 10 13 17 18 15 18 16 18 18 19 20 21 21 27 27 23 25 21 21 18 16 18 19 17 17 18 18 17 17 17 16
7 8 8 8 8 9 10 10 11 14 19 18 18 18 18 18 18 20 19 23 22 22 21 21 26 25 25 23 19 21 21 23 20 18 17 16 17 16
7 8 8 10 9 9 10 11 12 13 17 19 18 18 18 18 19 18 19 18 18 20 20 24 29 28 24 25 26 23 24 23 20 18 16 18 18 18
7 8 8 8 9 10 11 12 13 14 16 21 19 19 18 18 18 19 19 17 18 19 22 25 25 24 22 18 21 26 27 25 22 20 20 21 21 20
7 7 8 9 9 11 12 11 12 14 16 18 20 18 18 18 18 19 19 19 18 19 21 21 21 21 23 19 19 18 17 22 22 20 21 22 21 20
7 7 7 7 10 12 11 11 13 16 15 17 19 19 18 18 19 20 21 19 20 20 20 19 21 19 22 22 21 17 16 15 14 20 21 22 23 22
7 8 9 15 18 15 14 12 14 14 15 17 18 19 18 20 21 20 21 21 20 20 21 20 20 20 19 18 19 11 12 20 23 22 23 22 20 22
7 8 9 14 13 17 20 25 16 18 17 17 18 18 20 21 21 21 21 21 24 18 21 20 19 19 18 15 19 19 22 21 22 23 20 17 19 20
7 8 9 9 14 12 16 18 16 18 21 17 16 19 21 21 22 21 19 21 22 21 21 24 19 19 17 16 18 23 23 23 23 25 21 17 16 17
9 9 9 9 19 21 24 18 16 15 15 16 20 20 18 19 16 17 20 19 19 18 18 22 19 18 17 19 19 19 19 19 19 19 18 19 18 18
10 10 12 12 18 20 22 17 17 14 14 20 23 19 22 22 19 20 17 19 21 19 17 19 18 21 19 19 15 15 13 19 20 22 20 17 17 19
9 9 15 20 23 24 23 19 17 15 21 20 16 17 16 16 17 14 18 19 21 21 17 20 20 19 23 15 12 16 15 17 19 20 19 20 19 18
8 8 12 21 25 22 20 18 16 21 17 14 17 15 15 14 15 16 17 17 19 20 19 19 21 19 17 23 19 18 18 17 16 16 19 20 19 19
9 10 14 21 20 17 17 16 16 13 13 15 15 14 16 16 17 17 17 16 17 20 20 19 20 19 19 21 22 19 19 18 17 17 17 16 17 19
10 16 20 17 17 13 16 16 13 12 14 15 15 16 17 18 19 17 17 17 18 17 17 16 18 19 20 22 23 21 21 20 18 12 15 18 17 18
15 18 12 14 16 16 15 13 12 14 15 14 16 17 18 19 18 17 18 19 19 19 16 16 16 18 20 21 21 24 21 23 22 21 22 22 20 20
16 11 9 12 13 13 12 13 13 13 14 15 16 16 18 19 19 18 18 19 19 20 20 18 17 17 19 20 23 21 21 23 22 21 22 25 24 22
10 7 11 11 12 12 13 14 14 14 15 16 15 16 18 19 19 20 18 17 19 21 21 21 20 20 20 17 15 19 18 21 22 22 24 26 27 24
7 9 10 11 11 11 13 14 15 15 18 15 16 16 17 19 20 20 19 19 20 21 20 21 20 19 21 23 21 19 22 21 21 24 21 23 29 31
8 9 9 10 11 11 13 14 15 15 15 17 16 17 18 19 20 19 19 20 21 23 22 20 20 20 22 27 29 26 16 18 23 26 26 25 28 27
8 9 9 10 10 11 12 14 16 15 17 17 16 17 18 19 20 19 20 22 22 21 23 23 23 24 25 24 24 25 22 18 17 19 21 24 25 29
8 9 9 9 10 11 12 13 15 17 16 16 17 17 17 19 19 20 21 22 21 22 23 24 25 26 23 21 23 24 23 20 17 16 17 15 21 27
8 8 9 10 10 10 12 13 14 16 17 17 17 17 18 19 18 19 21 21 21 22 24 26 24 25 22 20 22 22 21 19 20 21 13 12 15 19
Wind_Direction
346 336 340 333 328 326 325 325 324 321 320 324 323 321 319 316 312 313 312 305 294 305 311 312 313 299 297 287 287 290 297 298 296 301 306 309 310 321
340 342 343 328 335 318 321 322 318 313 310 317 317 319 319 318 316 319 316 318 321 319 312 302 304 309 294 284 287 288 293 291 290 295 301 299 299 311
348 341 340 334 328 328 321 318 315 313 310 312 317 319 320 320 319 319 322 321 318 317 312 310 318 320 301 278 278 282 285 286 289 291 290 290 296 299
345 343 335 333 335 322 314 315 313 315 311 311 316 319 320 321 319 321 322 319 316 316 312 318 318 319 333 322 294 283 281 279 281 282 285 286 291 295
338 336 333 335 329 312 315 313 314 312 313 311 315 318 319 321 319 320 320 318 316 313 313 312 317 318 320 325 330 326 314 284 278 275 278 282 287 291
332 329 327 320 316 315 317 315 313 318 317 315 313 316 318 319 320 321 318 319 317 317 316 314 312 310 313 312 314 319 321 320 296 281 278 277 278 282
326 321 316 304 320 332 331 319 323 321 318 316 315 315 318 322 322 320 315 317 318 318 317 315 311 309 305 306 309 303 308 314 310 300 289 281 275 277
323 318 319 325 322 327 327 324 341 327 316 314 313 314 317 317 316 316 314 318 318 320 317 315 315 311 307 301 297 299 295 302 303 301 300 291 274 271
317 316 315 313 310 289 306 315 323 316 315 311 310 312 311 312 310 313 314 311 311 315 316 316 316 312 309 300 295 301 306 307 311 307 297 294 290 281
312 310 310 306 295 303 317 322 320 315 307 296 296 302 306 314 313 313 312 312 313 314 317 314 316 315 314 307 301 296 298 310 323 321 304 294 290 286
304 309 292 306 289 310 321 322 318 318 306 298 301 323 325 325 321 321 317 315 314 317 321 316 315 313 313 310 310 316 308 320 319 318 326 318 308 294
310 311 299 300 304 314 318 317 317 309 301 315 321 318 317 317 319 313 310 311 310 311 317 315 315 316 315 309 324 319 310 309 310 313 318 320 321 317
311 309 302 295 298 309 312 314 307 315 323 326 316 317 317 313 308 305 305 306 307 305 311 310 307 308 298 299 306 310 309 309 306 304 307 309 310 303
316 309 289 298 307 312 317 322 322 329 332 315 317 319 315 311 308 309 309 307 303 301 304 305 299 300 299 298 300 304 305 305 304 302 300 295 295 295
315 301 312 325 333 340 318 329 344 339 313 316 318 314 313 314 315 316 311 311 311 312 311 308 300 298 294 294 297 301 304 305 305 304 304 298 294 282
296 305 325 333 330 332 332 326 316 314 317 318 314 316 321 321 318 316 317 320 323 325 321 314 306 300 297 294 294 295 297 296 301 301 296 294 299 292
314 331 322 311 317 325 326 323 320 320 319 315 318 323 321 321 320 321 320 324 323 325 325 323 317 306 298 296 296 294 297 295 298 298 299 300 298 297
335 340 315 316 320 328 326 322 321 319 313 318 321 321 320 321 322 323 321 320 319 324 325 326 326 322 317 310 302 298 292 293 291 287 289 298 304 311
342 310 312 315 322 324 323 322 318 315 315 321 318 320 320 322 324 323 322 321 320 322 323 325 325 321 319 314 307 289 299 284 286 301 310 308 304 306
316 311 314 315 320 323 322 319 318 319 320 316 320 322 321 322 323 322 323 321 320 321 323 323 323 321 317 312 312 317 318 313 311 308 306 308 309 319
310 312 312 315 318 317 318 320 320 321 319 318 320 319 322 323 321 322 321 321 323 322 320 320 321 318 317 314 309 310 308 300 305 312 317 312 315 319
313 312 312 313 316 318 319 319 320 320 319 318 317 320 318 318 321 322 323 322 323 322 319 320 325 326 322 315 310 314 316 321 331 327 318 315 318 311
308 309 312 315 317 316 316 316 317 318 319 319 316 317 318 323 321 321 321 324 324 324 328 325 331 333 328 321 321 319 317 324 334 328 338 340 326 323